Weather in Blackburn

United Kingdom     53˚44′35″N   2˚28′19″W
temp.,
°C
wind,
m/s
gust,
m/s
humid.,
%
clouds,
%
prec.,
mm/h
press.,
hPa
HPBL,
m
29 november, sun
sun2900:00+7˚ene129795 0.1 102435
03:00+7˚e1195100 0.0 102426
06:00+7˚se1195100 0.0 102522
09:00+7˚ese119676 0.0 102622
12:00+9˚s229077 0.0 1026192
15:00+8˚wsw119459 0.0 102567
18:00+8˚sw119580 0.0 102625
21:00+8˚wsw119599 0.0 102622
30 november, mon
mon3000:00+7˚sw229597 0.0 102622
03:00+8˚sw3899100 0.1 1025343
06:00+7˚w3697100 0.2 1024200
09:00+8˚w51091100 0.1 1024574
12:00+8˚w71395100 0.6 1022651
15:00+8˚w81595100 1.7 1020780
18:00+9˚wnw81494100 1.9 1020762
21:00+7˚nw61287100 0.1 1022425
1 december, tue
tue100:00+5˚n258596 0.1 1024131
03:00+3˚nnw228399 0.0 102537
06:00+2˚nnw128791 0.0 102722
09:00+2˚nnw118698 0.0 102822
12:00+5˚nnw127596 0.0 1028184
15:00+4˚wnw118272 0.0 102722
18:00+4˚wsw117877 0.0 102722
21:00+3˚ssw117798 0.0 102622
2 december, wed
wed200:00+2˚s127887 0.0 102522
03:00+3˚sse237986 0.0 102372
06:00+3˚s347893 0.0 1021113
09:00+4˚sse3482100 0.1 1020108
12:00+5˚ssw139299 1.1 1019127
15:00+5˚wnw388556 0.0 1017281
18:00+5˚wsw398570 0.1 1016364
21:00+5˚sw3885100 0.1 1014280
3 december, thu
thu300:00+4˚sw3686100 0.3 1012157
03:00+4˚s3786100 0.3 1008236
06:00+3˚sse3891100 0.3 1005317
09:00+3˚sse4997100 1.5 1001551
12:00+3˚sse51196100 2.0 997674
15:00+3˚se51195100 0.4 992583
18:00+4˚se51189100 0.4 989606
21:00+4˚ese6118996 0.0 987572